Weather History for Dublin, VA

Change the Weather History Date:

Saturday, May 18, 2013

  Actual Average (KBCB) Record (KBCB)
Temperature  
Mean Temperature 66 °F 60 °F  
Max Temperature 71 °F 72 °F 87 °F (1962)
Min Temperature 60 °F 48 °F 25 °F (1973)
Degree Days  
Heating Degree Days 0 6  
Month to date heating degree days 143  
Since 1 July heating degree days 5348  
Cooling Degree Days 0 1  
Month to date cooling degree days 7  
Year to date cooling degree days 10  
Growing Degree Days 16 (Base 50)    
Moisture  
Dew Point 64 °F    
Average Humidity 97    
Maximum Humidity 100    
Minimum Humidity 78    
Precipitation  
Precipitation 0.03 in 0.14 in 1.10 in (1986)
Month to date precipitation 2.33  
Year to date precipitation 15.34  
Snow  
Snow 0.00 in - - ()
Month to date snowfall  
Since 1 July snowfall  
Snow Depth -    
Sea Level Pressure  
Sea Level Pressure 30.18 in    
Wind  
Wind Speed 2 mph (East)    
Max Wind Speed 8 mph    
Max Gust Speed -    
Visibility 6 miles    
Events Rain    
T = Trace of Precipitation, MM = Missing Value Source: NWS Daily Summary

Daily Weather History Graph

Daily Weather History Graph

Search for Another Location

Airport:

Trip Planner

Search our weather history database for the weather conditions in past years. The results will help you decide how hot, cold, wet, or windy it might be!

Date:

Astronomy

May. 18, 2013 Rise Set
Actual Time 6:11 AM EDT 8:26 PM EDT
Civil Twilight 5:42 AM EDT 8:56 PM EDT
Nautical Twilight 5:06 AM EDT 9:32 PM EDT
Astronomical Twilight 4:27 AM EDT 10:11 PM EDT
Moon 1:38 PM EDT (5/18) 1:53 AM EDT (5/18)
Length of Visible Light 15h 13m
Length of Day
14h 15m
First Quarter, 55% of the Moon is Illuminated
May 18
First Quarter
May 25
Full
May 31
Last Quarter
Jun 8
New
Jun 16
First Quarter

Hourly Weather History & Observations

Time (EDT) Temp. Dew Point Humidity Pressure Visibility Wind Dir Wind Speed Gust Speed Precip Events Conditions
12:35 AM 64.4 °F 64.4 °F 100% 30.18 in 7.0 mi Calm Calm - N/A   Mostly Cloudy
12:55 AM 64.4 °F 64.4 °F 100% 30.17 in 7.0 mi Calm Calm - N/A Rain Light Rain
1:15 AM 64.4 °F 64.4 °F 100% 30.17 in 7.0 mi Calm Calm - 0.01 in Rain Light Rain
1:35 AM 64.4 °F 64.4 °F 100% 30.16 in 4.0 mi Calm Calm - N/A Rain Light Rain
1:55 AM 62.6 °F 62.6 °F 100% 30.16 in 4.0 mi Calm Calm - N/A   Mostly Cloudy
2:15 AM 62.6 °F 62.6 °F 100% 30.16 in 3.0 mi Calm Calm - N/A   Scattered Clouds
2:35 AM 62.6 °F 62.6 °F 100% 30.16 in 4.0 mi Calm Calm - N/A   Clear
2:55 AM 62.6 °F 62.6 °F 100% 30.16 in 1.8 mi Calm Calm - N/A   Mostly Cloudy
3:15 AM 62.6 °F 62.6 °F 100% 30.15 in - Calm Calm - N/A   Unknown
3:35 AM 62.6 °F 62.6 °F 100% 30.16 in - Calm Calm - N/A   Unknown
3:55 AM 60.8 °F 60.8 °F 100% 30.16 in - Calm Calm - N/A   Unknown
4:15 AM 60.8 °F 60.8 °F 100% 30.16 in - Calm Calm - N/A   Overcast
4:35 AM 60.8 °F 60.8 °F 100% 30.16 in - Calm Calm - N/A   Overcast
4:55 AM 60.8 °F 60.8 °F 100% 30.16 in - Calm Calm - N/A   Overcast
5:15 AM 62.6 °F 62.6 °F 100% 30.16 in - ENE 5.8 mph - N/A   Overcast
5:35 AM 62.6 °F 62.6 °F 100% 30.17 in - East 4.6 mph - N/A   Overcast
5:55 AM 62.6 °F 62.6 °F 100% 30.17 in - East 5.8 mph - N/A   Overcast
6:15 AM 62.6 °F 62.6 °F 100% 30.17 in 2.0 mi East 4.6 mph - N/A   Overcast
6:35 AM 62.6 °F 62.6 °F 100% 30.18 in 3.0 mi East 5.8 mph - N/A   Overcast
6:55 AM 62.6 °F 62.6 °F 100% 30.19 in 3.0 mi East 4.6 mph - N/A   Mostly Cloudy
7:15 AM 62.6 °F 62.6 °F 100% 30.19 in 4.0 mi ENE 3.5 mph - N/A   Overcast
7:35 AM 62.6 °F 62.6 °F 100% 30.20 in 4.0 mi ENE 3.5 mph - N/A   Overcast
7:55 AM 62.6 °F 62.6 °F 100% 30.20 in 3.0 mi Calm Calm - N/A   Overcast
8:15 AM 62.6 °F 62.6 °F 100% 30.21 in 4.0 mi Calm Calm - N/A   Overcast
8:35 AM 62.6 °F 62.6 °F 100% 30.21 in 5.0 mi East 3.5 mph - N/A   Overcast
8:55 AM 64.4 °F 64.4 °F 100% 30.22 in 5.0 mi East 4.6 mph - N/A   Overcast
9:15 AM 64.4 °F 64.4 °F 100% 30.22 in 7.0 mi ESE 4.6 mph - N/A   Overcast
9:35 AM 64.4 °F 64.4 °F 100% 30.22 in 7.0 mi East 4.6 mph - N/A   Overcast
9:55 AM 64.4 °F 64.4 °F 100% 30.22 in 7.0 mi East 4.6 mph - N/A   Overcast
10:15 AM 64.4 °F 64.4 °F 100% 30.22 in 7.0 mi East 6.9 mph - N/A   Mostly Cloudy
10:35 AM 66.2 °F 66.2 °F 100% 30.22 in 7.0 mi East 6.9 mph - N/A   Mostly Cloudy
10:55 AM 66.2 °F 64.4 °F 94% 30.22 in 7.0 mi East 6.9 mph - N/A   Scattered Clouds
11:15 AM 66.2 °F 64.4 °F 94% 30.22 in 7.0 mi East 3.5 mph - N/A   Scattered Clouds
11:35 AM 66.2 °F 64.4 °F 94% 30.21 in 7.0 mi East 4.6 mph - N/A   Mostly Cloudy
11:55 AM 68.0 °F 64.4 °F 88% 30.20 in 7.0 mi ENE 5.8 mph - N/A   Mostly Cloudy
12:15 PM 66.2 °F 66.2 °F 100% 30.20 in 7.0 mi East 3.5 mph - N/A Rain Light Rain
12:35 PM 66.2 °F 64.4 °F 94% 30.20 in 7.0 mi East 3.5 mph - N/A   Mostly Cloudy
12:55 PM 66.2 °F 64.4 °F 94% 30.20 in 7.0 mi ENE 3.5 mph - N/A   Light Drizzle
1:15 PM 66.2 °F 66.2 °F 100% 30.20 in 4.0 mi East 4.6 mph - N/A Rain Light Rain
1:35 PM 66.2 °F 66.2 °F 100% 30.19 in 4.0 mi ENE 3.5 mph - N/A   Scattered Clouds
1:55 PM 68.0 °F 66.2 °F 94% 30.19 in 7.0 mi ENE 4.6 mph - N/A   Clear
2:15 PM 68.0 °F 66.2 °F 94% 30.19 in 5.0 mi East 4.6 mph - N/A Rain Light Rain
2:35 PM 68.0 °F 68.0 °F 100% 30.18 in 5.0 mi East 5.8 mph - N/A Rain Light Rain
3:15 PM 68.0 °F 66.2 °F 94% 30.18 in 5.0 mi East 5.8 mph - N/A Rain Light Rain
3:35 PM 68.0 °F 66.2 °F 94% 30.17 in 5.0 mi ENE 6.9 mph - N/A Rain Light Rain
3:55 PM 69.8 °F 68.0 °F 94% 30.16 in 5.0 mi East 6.9 mph - N/A   Scattered Clouds
4:15 PM 68.0 °F 66.2 °F 94% 30.16 in 10.0 mi ESE 5.8 mph - N/A   Mostly Cloudy
4:35 PM 69.8 °F 66.2 °F 88% 30.16 in 10.0 mi ESE 8.1 mph - N/A   Mostly Cloudy
4:55 PM 69.8 °F 66.2 °F 88% 30.15 in 10.0 mi SSE 5.8 mph - N/A   Overcast
5:15 PM 71.6 °F 64.4 °F 78% 30.15 in 10.0 mi SSE 6.9 mph - 0.01 in   Mostly Cloudy
5:35 PM 69.8 °F 66.2 °F 88% 30.14 in 10.0 mi SE 5.8 mph - N/A   Mostly Cloudy
6:15 PM 68.0 °F 64.4 °F 88% 30.15 in 10.0 mi SE 5.8 mph - N/A   Overcast
6:35 PM 68.0 °F 64.4 °F 88% 30.15 in 10.0 mi SE 4.6 mph - N/A   Mostly Cloudy
6:55 PM 68.0 °F 64.4 °F 88% 30.15 in 10.0 mi ESE 5.8 mph - N/A   Overcast
7:15 PM 66.2 °F 64.4 °F 94% 30.15 in 4.0 mi SE 3.5 mph - N/A   Drizzle
7:35 PM 66.2 °F 66.2 °F 100% 30.16 in 2.5 mi ESE 5.8 mph - N/A Rain Rain
7:55 PM 64.4 °F 64.4 °F 100% 30.16 in 4.0 mi Calm Calm - N/A Rain Light Rain
8:15 PM 64.4 °F 64.4 °F 100% 30.17 in 7.0 mi SE 4.6 mph - 0.01 in Rain Light Rain
8:35 PM 64.4 °F 64.4 °F 100% 30.17 in 4.0 mi ESE 4.6 mph - N/A Rain Light Rain
8:55 PM 64.4 °F 64.4 °F 100% 30.17 in 4.0 mi ESE 4.6 mph - N/A   Overcast
9:15 PM 64.4 °F 64.4 °F 100% 30.17 in 3.0 mi ESE 4.6 mph - N/A   Overcast
9:35 PM 64.4 °F 64.4 °F 100% 30.17 in 3.0 mi ESE 3.5 mph - N/A   Mostly Cloudy
9:55 PM 64.4 °F 64.4 °F 100% 30.17 in 3.0 mi East 3.5 mph - N/A   Mostly Cloudy
10:15 PM 62.6 °F 62.6 °F 100% 30.18 in 2.5 mi ESE 3.5 mph - N/A Rain Heavy Rain
10:35 PM 62.6 °F 62.6 °F 100% 30.18 in 3.0 mi Calm Calm - N/A   Drizzle
10:55 PM 62.6 °F 62.6 °F 100% 30.18 in 3.0 mi Calm Calm - N/A   Overcast
11:15 PM 62.6 °F 62.6 °F 100% 30.18 in 3.0 mi Calm Calm - N/A   Overcast
11:35 PM 62.6 °F 62.6 °F 100% 30.17 in 3.0 mi Calm Calm - N/A   Overcast
11:55 PM 62.6 °F 62.6 °F 100% 30.17 in 4.0 mi Calm Calm - N/A   Overcast